Flag for Germany Weather past 2 weeks in Neumarkt in der Oberpfalz, Bavaria, Germany

Now
64 °F

Partly sunny.


Feels Like: 64 °F
Forecast: 52 / 72 °F
Wind: 2 mph from North

Location: Hohenfels

Current Time: Aug 29, 2014 at 4:08:12 PM

Latest Report: Aug 29, 2014 at 2:58 PM


Visibility: N/A

Pressure: 30.07 "Hg

Humidity: 83%

Dew point: 59 °F

Location of Neumarkt in der OberpfalzLocation

Historic Weather in Neumarkt in der Oberpfalz — Graph

°F

Neumarkt in der Oberpfalz temperature yesterday

Maximum temperature yesterday: 70 °F (at 3:58 PM)
Minimum temperature yesterday: 43 °F (at 4:58 AM)
Average temperature yesterday: 55 °F

Past Weeks' High & Low Weather Summary

 TemperatureHumidityPressure
High70 °F (Aug 17, 1:58 PM)100% (Aug 26, 4:58 AM)30.17 "Hg (Aug 26, 4:58 AM)
Low37 °F (Aug 25, 5:58 AM)37% (Aug 21, 2:58 PM)29.70 "Hg (Aug 26, 8:58 AM)
Average57 °F76%29.99 "Hg
* Reported Aug 14 2:58 PM — Aug 29 2:58 PM, Neumarkt in der Oberpfalz, Weather by CustomWeather, © 2014

Note: Actual official high and low records may vary slightly from our data, if they occured in-between our weather recording intervals... More about our weather records

Advertising

Neumarkt in der Oberpfalz weather history for previous 24 hours

 ConditionsComfort  
Time TempWeatherWind HumidityBarometerVisibility
2:58 PM
Aug 29
64 °FPartly sunny.2 mph83%30.07 "HgN/A
2:02 PM63 °FScattered clouds.2 mph88%30.09 "HgN/A
12:56 PM63 °FLight rain. Overcast.3 mph94%30.09 "HgN/A
11:58 AM64 °FLight rain. Mostly cloudy.5 mph78%30.08 "Hg6 mi
10:58 AM66 °FPartly sunny.No wind73%30.05 "HgN/A
9:58 AM64 °FScattered clouds.5 mph73%30.05 "HgN/A
8:58 AM59 °FPassing clouds.3 mph82%30.07 "HgN/A
7:58 AM55 °FSunny.No wind88%30.07 "HgN/A
6:58 AM52 °FOvercast.2 mph100%30.06 "HgN/A
5:58 AM52 °FPassing clouds.2 mph100%30.05 "HgN/A
4:58 AM54 °FPassing clouds.No wind94%30.05 "HgN/A
3:58 AM55 °FOvercast.No wind88%30.06 "HgN/A
2:58 AM54 °FPassing clouds.No wind94%30.06 "HgN/A
1:58 AM55 °FOvercast.No wind88%30.07 "HgN/A
12:58 AM54 °FOvercast.1 mph94%30.09 "HgN/A
11:58 PM
Aug 28
52 °FPassing clouds.3 mph94%30.10 "HgN/A
10:58 PM54 °FClear.2 mph94%30.10 "HgN/A
9:58 PM55 °FPassing clouds.3 mph94%30.10 "HgN/A
8:58 PM57 °FSunny.5 mph88%30.09 "HgN/A
7:58 PM61 °FSunny.No wind83%30.09 "HgN/A
6:58 PM66 °FSunny.5 mph64%30.08 "HgN/A
5:58 PM68 °FSunny.3 mph56%30.08 "HgN/A
4:58 PM70 °FSunny.5 mph50%30.08 "HgN/A
Weather by CustomWeather, © 2014

See weather overviewHow to use our weather pages